TELEOS 1 (41169 NORAD) Tracking and Keplerian Element Data

This shows tracking and keplerian element data for the satellite.

Feedback or suggestion? Click here.




ElementValue
Catalog41169
NameTELEOS 1
Epoch Orbit14275
Epoch Day198.29325231
Epoch Year2018
RAAN180.6883
Inclination14.9816
Eccentricity0.0010851
Argument of Perigee54.1078
Mean Anonmoly157.3272
Mean Motion15.09918513
Decay Rate1.127E-05
L11 41169U 15077D 18198.29325231 .00001127 00000-0 27840-4 0 9991
L22 41169 14.9816 180.6883 0010851 54.1078 157.3272 15.09918513142754

Live tracking and technical data element details for TELEOS 1 (NORAD 41169). TELEOS 1 can be tracked NOW for your location showing map with azimuth and elevation plus other details from your city location.

Track the satellite on the map from your city or location and see movement details for azimuth, elevation, latitude, longitude, range, height, and movement on the map or in text.







IsCatalogInMostPopularTable: catalog: 41169, numindb: 57
Update: records affected: 1



GetName: 41169 TELEOS 1

Hit Count: updated at: Thu, 19 Jul 2018 03:59:39 GMT